| time (UTC) | temp C | wind direction | speed KPH | gust KPH | rain 1hr cm | rain 24hr cm | rain mn cm | humidity % | barometer mb |
| 20260503200220 | 18 | 264 | 4.8 | 11.3 | 0.00 | 0.00 | 0.00 | 74 | 1012.5 |
| 20260503200003 | 18 | 220 | 3.2 | 11.3 | 0.00 | 0.00 | 0.00 | 74 | 1012.4 |
| 20260503194515 | 17 | 266 | 8.0 | 12.9 | 0.00 | 0.00 | 0.00 | 70 | 1012.5 |
| 20260503193248 | 17 | 252 | 8.0 | 14.5 | 0.00 | 0.00 | 0.00 | 71 | 1012.9 |
| 20260503193059 | 17 | 270 | 8.0 | 14.5 | 0.00 | 0.00 | 0.00 | 70 | 1012.8 |
| 20260503191506 | 17 | 262 | 8.0 | 12.9 | 0.00 | 0.00 | 0.00 | 72 | 1012.7 |
| 20260503190240 | 17 | 274 | 8.0 | 12.9 | 0.00 | 0.00 | 0.00 | 74 | 1013.1 |
| 20260503190041 | 17 | 268 | 6.4 | 12.9 | 0.00 | 0.00 | 0.00 | 74 | 1012.9 |
| 20260503184557 | 16 | 262 | 6.4 | 12.9 | 0.00 | 0.00 | 0.00 | 75 | 1013.0 |
| 20260503183225 | 17 | 274 | 8.0 | 12.9 | 0.00 | 0.00 | 0.00 | 74 | 1013.2 |
| 20260503183053 | 16 | 285 | 6.4 | 12.9 | 0.00 | 0.00 | 0.00 | 72 | 1013.1 |
| 20260503181605 | 16 | 292 | 6.4 | 11.3 | 0.00 | 0.00 | 0.00 | 77 | 1013.2 |
| 20260503180219 | 16 | 251 | 8.0 | 11.3 | 0.00 | 0.00 | 0.00 | 78 | 1013.4 |
| 20260503180109 | 16 | 236 | 6.4 | 11.3 | 0.00 | 0.00 | 0.00 | 78 | 1013.3 |
| 20260503174512 | 15 | 264 | 3.2 | 6.4 | 0.00 | 0.00 | 0.00 | 84 | 1013.4 |
| 20260503173233 | 15 | 256 | 3.2 | 6.4 | 0.00 | 0.00 | 0.00 | 83 | 1013.6 |
| 20260503173009 | 15 | 250 | 3.2 | 6.4 | 0.00 | 0.00 | 0.00 | 83 | 1013.5 |
| 20260503171552 | 15 | 261 | 1.6 | 6.4 | 0.00 | 0.00 | 0.00 | 82 | 1013.4 |
| 20260503170226 | 15 | 248 | 1.6 | 3.2 | 0.00 | 0.00 | 0.00 | 83 | 1013.8 |
| 20260503150226 | 13 | 259 | 0.0 | 0.0 | 0.00 | 0.00 | 0.00 | 86 | 1014.1 |
| 20260503140236 | 12 | 285 | 0.0 | 0.0 | 0.00 | 0.00 | 0.00 | 88 | 1014.1 |
| 20260503130229 | 12 | 300 | 0.0 | 0.0 | 0.00 | 0.00 | 0.00 | 90 | 1013.9 |
| 20260503110231 | 13 | 300 | 0.0 | 0.0 | 0.00 | 0.00 | 0.00 | 79 | 1013.8 |
| 20260503110109 | 13 | 300 | 0.0 | 0.0 | 0.00 | 0.00 | 0.00 | 79 | 1013.5 |
| 20260503100227 | 13 | 302 | 3.2 | 4.8 | 0.00 | 0.00 | 0.00 | 78 | 1013.7 |
| 20260503090251 | 15 | 343 | 0.0 | 0.0 | 0.00 | 0.00 | 0.00 | 73 | 1013.6 |
| 20260503081508 | 15 | 275 | 1.6 | 6.4 | 0.00 | 0.00 | 0.00 | 76 | 1013.3 |
| 20260503080220 | 16 | 16 | 0.0 | 6.4 | 0.00 | 0.00 | 0.00 | 69 | 1013.4 |
| 20260503071503 | 15 | 311 | 0.0 | 0.0 | 0.00 | 0.00 | 0.00 | 70 | 1013.1 |
| 20260503070228 | 16 | 311 | 0.0 | 0.0 | 0.00 | 0.00 | 0.00 | 70 | 1013.2 |
| 20260503060228 | 16 | 37 | 0.0 | 0.0 | 0.00 | 0.00 | 0.00 | 66 | 1012.9 |
| 20260503060109 | 16 | 37 | 0.0 | 0.0 | 0.00 | 0.00 | 0.00 | 65 | 1012.8 |
| 20260503054604 | 16 | 37 | 0.0 | 0.0 | 0.00 | 0.00 | 0.00 | 67 | 1012.6 |
| 20260503053241 | 16 | 129 | 0.0 | 0.0 | 0.00 | 0.00 | 0.00 | 67 | 1012.8 |
| 20260503053044 | 16 | 129 | 0.0 | 0.0 | 0.00 | 0.00 | 0.00 | 67 | 1012.7 |
| 20260503051559 | 17 | 129 | 0.0 | 1.6 | 0.00 | 0.00 | 0.00 | 67 | 1012.7 |
| 20260503050229 | 17 | 131 | 0.0 | 0.0 | 0.00 | 0.00 | 0.00 | 60 | 1012.7 |
| 20260503050049 | 17 | 131 | 0.0 | 0.0 | 0.00 | 0.00 | 0.00 | 60 | 1012.7 |
| 20260503044601 | 17 | 146 | 0.0 | 1.6 | 0.00 | 0.00 | 0.00 | 59 | 1012.6 |
| 20260503043227 | 18 | 129 | 0.0 | 3.2 | 0.00 | 0.00 | 0.00 | 55 | 1012.7 |
| 20260503043106 | 18 | 115 | 0.0 | 6.4 | 0.00 | 0.00 | 0.00 | 55 | 1012.5 |
| 20260503041512 | 20 | 143 | 0.0 | 9.7 | 0.00 | 0.00 | 0.00 | 48 | 1012.3 |
| 20260503040242 | 20 | 357 | 3.2 | 16.1 | 0.00 | 0.00 | 0.00 | 50 | 1012.2 |
| 20260503040108 | 20 | 8 | 6.4 | 16.1 | 0.00 | 0.00 | 0.00 | 49 | 1012.0 |
| 20260503034503 | 20 | 335 | 3.2 | 22.5 | 0.00 | 0.00 | 0.00 | 48 | 1011.9 |
| 20260503033232 | 21 | 342 | 4.8 | 24.1 | 0.00 | 0.00 | 0.00 | 47 | 1011.9 |
| 20260503033107 | 20 | 34 | 8.0 | 24.1 | 0.00 | 0.00 | 0.00 | 46 | 1011.7 |
| 20260503031546 | 21 | 358 | 4.8 | 25.7 | 0.00 | 0.00 | 0.00 | 45 | 1011.7 |
| 20260503030229 | 21 | 315 | 6.4 | 16.1 | 0.00 | 0.00 | 0.00 | 45 | 1011.7 |
| 20260503030038 | 21 | 77 | 6.4 | 16.1 | 0.00 | 0.00 | 0.00 | 44 | 1011.6 |
| 20260503024508 | 21 | 354 | 6.4 | 17.7 | 0.00 | 0.00 | 0.00 | 44 | 1011.5 |
| 20260503023229 | 22 | 349 | 4.8 | 19.3 | 0.00 | 0.00 | 0.00 | 43 | 1011.7 |
| 20260503023008 | 22 | 19 | 6.4 | 19.3 | 0.00 | 0.00 | 0.00 | 43 | 1011.5 |
| 20260503021523 | 22 | 20 | 4.8 | 16.1 | 0.00 | 0.00 | 0.00 | 41 | 1011.5 |
| 20260503020232 | 22 | 307 | 6.4 | 19.3 | 0.00 | 0.00 | 0.00 | 43 | 1011.8 |
| 20260503020054 | 22 | 333 | 4.8 | 19.3 | 0.00 | 0.00 | 0.00 | 42 | 1011.7 |
| 20260503014611 | 22 | 224 | 3.2 | 20.9 | 0.00 | 0.00 | 0.00 | 42 | 1011.9 |
| 20260503013227 | 23 | 297 | 1.6 | 9.7 | 0.00 | 0.00 | 0.00 | 42 | 1012.1 |
| 20260503013002 | 23 | 308 | 1.6 | 12.9 | 0.00 | 0.00 | 0.00 | 41 | 1012.0 |
| 20260503011513 | 23 | 254 | 3.2 | 19.3 | 0.00 | 0.00 | 0.00 | 42 | 1012.1 |
| 20260503010251 | 23 | 21 | 1.6 | 17.7 | 0.00 | 0.00 | 0.00 | 43 | 1012.3 |
| 20260503010036 | 23 | 49 | 0.0 | 17.7 | 0.00 | 0.00 | 0.00 | 43 | 1012.2 |
| 20260503004512 | 23 | 290 | 4.8 | 16.1 | 0.00 | 0.00 | 0.00 | 44 | 1012.4 |
| 20260503003228 | 24 | 311 | 4.8 | 19.3 | 0.00 | 0.00 | 0.00 | 43 | 1012.5 |
| 20260503003012 | 23 | 6 | 3.2 | 16.1 | 0.00 | 0.00 | 0.00 | 43 | 1012.5 |
| 20260503001604 | 23 | 309 | 1.6 | 14.5 | 0.00 | 0.00 | 0.00 | 46 | 1012.6 |
| 20260503000301 | 23 | 290 | 6.4 | 16.1 | 0.00 | 0.00 | 0.00 | 47 | 1012.8 |
| 20260503000036 | 23 | 288 | 4.8 | 16.1 | 0.00 | 0.00 | 0.00 | 47 | 1012.8 |
| 20260502234552 | 22 | 236 | 9.7 | 17.7 | 0.00 | 0.00 | 0.00 | 49 | 1013.0 |
| 20260502233227 | 21 | 270 | 6.4 | 12.9 | 0.00 | 0.00 | 0.00 | 60 | 1013.2 |
| 20260502233053 | 21 | 251 | 6.4 | 12.9 | 0.00 | 0.00 | 0.00 | 58 | 1013.1 |
| 20260502231604 | 20 | 298 | 4.8 | 14.5 | 0.00 | 0.00 | 0.00 | 61 | 1013.4 |
| 20260502230229 | 20 | 253 | 8.0 | 16.1 | 0.00 | 0.00 | 0.00 | 66 | 1013.6 |
| 20260502230053 | 19 | 281 | 6.4 | 16.1 | 0.00 | 0.00 | 0.00 | 68 | 1013.5 |
| 20260502224501 | 18 | 250 | 6.4 | 14.5 | 0.00 | 0.00 | 0.00 | 75 | 1013.9 |
| 20260502223222 | 20 | 262 | 8.0 | 12.9 | 0.00 | 0.00 | 0.00 | 65 | 1014.1 |
| 20260502223106 | 20 | 255 | 8.0 | 12.9 | 0.00 | 0.00 | 0.00 | 68 | 1014.0 |
| 20260502221544 | 20 | 250 | 9.7 | 14.5 | 0.00 | 0.00 | 0.00 | 64 | 1014.2 |
| 20260502220224 | 19 | 274 | 9.7 | 17.7 | 0.00 | 0.00 | 0.00 | 70 | 1014.4 |
| 20260502220045 | 18 | 294 | 9.7 | 17.7 | 0.00 | 0.00 | 0.00 | 70 | 1014.3 |
| 20260502214558 | 18 | 271 | 11.3 | 19.3 | 0.00 | 0.00 | 0.00 | 75 | 1014.6 |
| 20260502213220 | 18 | 269 | 8.0 | 14.5 | 0.00 | 0.00 | 0.00 | 75 | 1014.8 |
| 20260502213100 | 18 | 276 | 8.0 | 16.1 | 0.00 | 0.00 | 0.00 | 74 | 1014.7 |
| 20260502211509 | 18 | 247 | 8.0 | 17.7 | 0.00 | 0.00 | 0.00 | 75 | 1014.9 |
| 20260502210222 | 18 | 252 | 12.9 | 19.3 | 0.00 | 0.00 | 0.00 | 74 | 1015.2 |
| 20260502210115 | 18 | 275 | 11.3 | 19.3 | 0.00 | 0.00 | 0.00 | 74 | 1015.1 |
| 20260502204505 | 18 | 257 | 9.7 | 16.1 | 0.00 | 0.00 | 0.00 | 74 | 1015.3 |
| 20260502203252 | 18 | 291 | 11.3 | 17.7 | 0.00 | 0.00 | 0.00 | 75 | 1015.4 |
| 20260502203034 | 17 | 252 | 9.7 | 19.3 | 0.00 | 0.00 | 0.00 | 75 | 1015.4 |
| 20260502201552 | 18 | 273 | 11.3 | 17.7 | 0.00 | 0.00 | 0.00 | 75 | 1015.6 |